Home > Weather > Bhinga > Past weeks

Flag for India Past Weather in Bhinga, Uttar Pradesh, India — Yesterday and Last 2 Weeks

Now
82 °F

Mostly cloudy.


Feels Like: 94 °F
Forecast: 79 / 92 °F
Wind: No wind

Location: Lucknow / Amausi

Current Time: Jul 31, 2016 at 12:20:50 AM

Latest Report: Jul 30, 2016 at 10:00 PM


Visibility: 2 mi

Pressure: 29.59 "Hg

Humidity: 94%

Dew Point: 81 °F

Location of BhingaLocation

Past Weather in Bhinga — Graph

°F

Bhinga Temperature Yesterday

Maximum temperature yesterday: 93 °F (at 3:30 PM)
Minimum temperature yesterday: 77 °F (at 5:00 AM)
Average temperature yesterday: 84 °F

High & Low Weather Summary for the Past Weeks

 TemperatureHumidityPressure
High97 °F (Jul 24, 2:30 PM)100% (Jul 16, 8:00 AM)29.71 "Hg (Jul 16, 8:00 AM)
Low77 °F (Jul 30, 5:00 AM)46% (Jul 19, 4:00 PM)29.45 "Hg (Jul 19, 6:00 PM)
Average85 °F91%29.56 "Hg
* Reported Jul 15 10:00 PM — Jul 30 10:00 PM, Bhinga, Weather by CustomWeather, © 2016

Note: Actual official high and low records may vary slightly from our data, if they occured in-between our weather recording intervals... More about our weather records

Advertising

Bhinga Weather History for the Previous 24 Hours

Scroll right to see more
 ConditionsComfort  
Time TempWeatherWind HumidityBarometerVisibility
10:00 PM
Sat, Jul 30
82 °FMostly cloudy.No wind94%29.59 "Hg1 mi
9:00 PM82 °FLight rain. Overcast.No wind100%29.59 "Hg1 mi
8:00 PM81 °FThunderstorms. Overcast.5 mph100%29.56 "Hg1 mi
7:30 PM86 °FMostly cloudy.5 mphN/A29.56 "Hg2 mi
7:00 PM88 °FBroken clouds.No wind89%29.53 "Hg2 mi
6:30 PM88 °FBroken clouds.2 mph89%29.53 "Hg2 mi
6:00 PM90 °FBroken clouds.No wind84%29.53 "Hg2 mi
5:30 PM90 °FBroken clouds.2 mph84%29.50 "Hg2 mi
5:00 PM91 °FBroken clouds.2 mph75%29.50 "Hg2 mi
4:30 PM91 °FBroken clouds.3 mph75%29.50 "Hg2 mi
4:00 PM91 °FBroken clouds.3 mph75%29.50 "Hg2 mi
3:30 PM93 °FBroken clouds.5 mph71%29.50 "Hg2 mi
3:00 PM91 °FBroken clouds.5 mph75%29.53 "Hg2 mi
2:30 PM91 °FBroken clouds.2 mph75%29.53 "Hg2 mi
2:00 PM91 °FBroken clouds.2 mph80%29.56 "Hg2 mi
1:30 PM90 °FBroken clouds.2 mph84%29.56 "Hg2 mi
1:00 PM88 °FBroken clouds.2 mph89%29.59 "Hg2 mi
11:30 AM90 °FBroken clouds.2 mph84%29.62 "Hg2 mi
11:00 AM88 °FScattered clouds.2 mph94%29.62 "Hg2 mi
10:30 AM82 °FBroken clouds.2 mph94%29.62 "Hg2 mi
9:30 AM82 °FBroken clouds.2 mph94%29.62 "Hg2 mi
9:00 AM81 °FBroken clouds.2 mph94%29.59 "Hg2 mi
8:30 AM77 °FLight rain. Broken clouds.2 mph100%29.59 "Hg2 mi
8:00 AM77 °FLight rain. Broken clouds.2 mph100%29.59 "Hg2 mi
7:30 AM77 °FLight rain. More clouds than sun.2 mph100%29.59 "Hg2 mi
7:00 AM77 °FLight rain. More clouds than sun.2 mph100%29.59 "Hg2 mi
6:00 AM77 °FLight rain. More clouds than sun.2 mph100%29.59 "Hg2 mi
5:30 AM77 °FLight rain. Mostly cloudy.No wind100%29.56 "Hg1 mi
5:00 AM77 °FLight rain. Mostly cloudy.No wind100%29.56 "Hg1 mi
4:00 AM79 °FLight rain. Mostly cloudy.2 mph100%29.56 "Hg1 mi
3:00 AM81 °FPartly cloudy.No wind100%29.56 "Hg2 mi
2:00 AM81 °FPartly cloudy.No wind100%29.56 "Hg2 mi
1:00 AM81 °FPartly cloudy.No wind100%29.56 "Hg2 mi
12:00 AM81 °FPartly cloudy.No wind100%29.59 "Hg2 mi
Weather by CustomWeather, © 2016

See weather overviewHow to use our weather pages